User: anonymous   Login
Location: Unspecified
(0.0000°N, 0.0000°E)
Time: 19:29:49
(UTC+00:00)
Language:

TATIANA - Orbit

View from above orbital plane
View from above orbital plane
View from above satellite
View from above satellite

Ground track
Ground track

The orbit data is extracted from the following two-line orbital elements,

1 28523U 05002C   22222.42742692  .00000085  00000-0  57932-4 0  9996
2 28523  82.9493  29.4417 0038640  31.4173 328.9287 13.87587342888870
Epoch (UTC): 10 August 2022 10:15:29
Eccentricity: 0.0038640
inclination: 82.9493°
perigee height: 909 km
apogee height: 965 km
right ascension of ascending node: 29.4417°
argument of perigee: 31.4173°
revolutions per day: 13.87587342
mean anomaly at epoch: 328.9287°
orbit number at epoch: 88887

The dashed part of the orbit path shows where the satellite is in the earth's shadow,  

DLR